FW2969 Weather Reports


time (UTC)temp
F
wind
direction
speed
knots
gust
knots
rain 1hr
in
rain 24hr
in
rain mn
in
humidity
%
barometer
mb
20260831111513 76 271 1.7 6.1 0.00 0.00 0.00 69 1009.6
20260831110017 75 264 2.6 9.6 0.00 0.00 0.00 69 1009.5
20260831104525 75 299 2.6 7.8 0.00 0.00 0.00 72 1009.6
20260831103009 75 236 2.6 9.6 0.00 0.00 0.00 71 1009.7
20260831101508 76 277 1.7 9.6 0.00 0.00 0.00 69 1009.8
20260831100006 75 209 3.5 8.7 0.00 0.00 0.00 69 1009.8
20260831094507 75 284 1.7 10.4 0.00 0.00 0.00 65 1009.8
20260831093014 76 276 1.7 10.4 0.00 0.00 0.00 64 1010.0
20260831091505 75 280 1.7 7.0 0.00 0.00 0.00 66 1010.0
20260831090003 75 319 3.5 7.8 0.00 0.00 0.00 64 1010.0
20260831084502 76 280 1.7 9.6 0.00 0.00 0.00 63 1010.0
20260831083001 77 316 2.6 8.7 0.00 0.00 0.00 60 1010.1
20260831081601 77 263 0.9 7.0 0.00 0.00 0.00 55 1010.1
20260831080115 76 305 1.7 5.2 0.00 0.00 0.00 55 1010.1
20260831074604 75 314 1.7 7.8 0.00 0.00 0.00 55 1010.1
20260831073054 75 268 1.7 5.2 0.00 0.00 0.00 54 1010.1
20260831071605 75 302 1.7 5.2 0.00 0.00 0.00 55 1010.0
20260831070053 75 307 0.9 5.2 0.00 0.00 0.00 54 1010.0
20260831064551 75 255 0.0 3.5 0.00 0.00 0.00 54 1010.0
20260831063050 75 326 0.0 1.7 0.00 0.00 0.00 55 1009.9
20260831061549 75 304 0.0 1.7 0.00 0.00 0.00 55 1009.9
20260831060059 74 88 0.0 0.0 0.00 0.00 0.00 56 1009.8
20260831054545 74 88 0.0 1.7 0.00 0.00 0.00 56 1009.8
20260831053048 73 90 0.0 0.0 0.00 0.00 0.00 58 1009.7
20260831051542 72 90 0.0 0.0 0.00 0.00 0.00 63 1009.6
20260831050038 71 90 0.0 0.9 0.00 0.00 0.00 69 1009.5
20260831044532 69 90 0.0 0.0 0.00 0.00 0.00 74 1009.5
20260831043035 67 90 0.0 0.9 0.00 0.00 0.00 76 1009.4
20260831041524 65 90 0.0 0.9 0.00 0.00 0.00 77 1009.3
20260831040023 65 90 0.0 0.9 0.00 0.00 0.00 77 1009.3
20260831034522 65 90 0.0 0.9 0.00 0.01 0.00 75 1009.2
20260831033021 65 90 0.0 0.9 0.00 0.01 0.00 74 1009.2
20260831031520 65 89 0.0 0.9 0.00 0.01 0.00 72 1009.1
20260831030019 65 89 0.0 1.7 0.00 0.01 0.00 69 1009.1
20260831024524 65 88 0.0 1.7 0.00 0.07 0.00 69 1009.1
20260831023117 65 92 0.0 2.6 0.00 0.07 0.00 70 1009.1
20260831021517 65 105 0.0 1.7 0.00 0.07 0.00 70 1009.1
20260831020017 65 108 0.0 0.9 0.00 0.07 0.00 69 1009.2
20260831014516 65 108 0.0 0.9 0.00 0.07 0.00 69 1009.1
20260831013034 65 108 0.0 0.9 0.00 0.07 0.00 69 1009.2
20260831011519 65 110 0.0 0.9 0.00 0.07 0.00 69 1009.1
20260831010018 64 111 0.0 0.9 0.00 0.07 0.00 69 1009.1
20260831004514 64 111 0.0 0.9 0.00 0.08 0.00 70 1009.1
20260831003020 64 111 0.0 0.9 0.00 0.08 0.00 71 1009.0
20260831001521 64 112 0.0 1.7 0.00 0.08 0.00 72 1009.1
20260831000012 64 115 0.0 0.9 0.00 0.08 0.00 74 1009.0
20260830234510 64 115 0.0 0.0 0.00 0.08 0.00 74 1008.9
20260830233011 64 115 0.0 0.0 0.00 0.08 0.00 73 1008.8
20260830231508 65 115 0.0 0.0 0.00 0.08 0.00 72 1008.9
20260830230007 65 115 0.0 0.9 0.00 0.08 0.00 71 1008.9
20260830224508 65 115 0.0 0.9 0.00 0.08 0.00 71 1008.9
20260830223003 66 115 0.0 0.0 0.00 0.08 0.00 70 1008.9
20260830221503 66 115 0.0 0.0 0.00 0.08 0.00 70 1009.0
20260830220002 66 115 0.0 0.0 0.00 0.08 0.00 71 1009.0
20260830214601 66 115 0.0 0.0 0.00 0.08 0.00 71 1009.0
20260830213058 66 115 0.0 0.0 0.00 0.08 0.00 72 1009.2
20260830211557 66 115 0.0 0.0 0.00 0.08 0.00 72 1009.2
20260830210109 66 115 0.0 0.9 0.00 0.08 0.00 75 1009.2
20260830204606 65 115 0.0 0.9 0.00 0.08 0.08 76 1009.2
20260830203051 65 115 0.0 0.0 0.00 0.08 0.08 77 1009.0
20260830201555 66 115 0.0 0.0 0.00 0.08 0.08 78 1008.9
20260830200105 66 115 0.0 0.9 0.00 0.08 0.08 77 1008.9
20260830194613 66 115 0.0 0.9 0.00 0.08 0.08 77 1008.8
20260830193048 66 115 0.0 1.7 0.00 0.08 0.08 77 1008.8
20260830191548 66 119 0.0 1.7 0.00 0.08 0.08 77 1008.7
20260830190048 67 125 0.0 1.7 0.00 0.08 0.08 77 1008.8
20260830184547 67 143 0.0 0.9 0.00 0.10 0.08 77 1008.8
20260830183047 67 230 0.0 0.9 0.00 0.10 0.08 77 1008.9
20260830181546 67 230 0.0 0.0 0.00 0.10 0.08 76 1008.9
20260830180045 68 230 0.0 0.9 0.00 0.10 0.08 75 1008.8
20260830174549 68 231 0.0 0.9 0.00 0.10 0.08 75 1008.8
20260830173101 68 232 0.0 0.0 0.00 0.10 0.08 74 1008.7
20260830171543 69 232 0.0 0.0 0.00 0.10 0.08 73 1008.4
20260830170050 69 232 0.0 0.0 0.00 0.10 0.08 72 1008.4
20260830164546 69 232 0.0 0.0 0.00 0.10 0.08 71 1008.2
20260830163049 70 232 0.0 0.9 0.00 0.10 0.08 70 1008.0
20260830161559 70 276 0.0 1.7 0.00 0.10 0.08 69 1007.9
20260830160036 71 309 0.0 3.5 0.00 0.10 0.08 68 1007.9
20260830154536 72 260 0.0 3.5 0.00 0.10 0.08 65 1007.8
20260830153045 73 292 0.0 5.2 0.00 0.10 0.08 63 1007.9
20260830151537 74 255 0.9 5.2 0.00 0.10 0.08 59 1008.0
20260830150039 75 218 2.6 7.0 0.00 0.10 0.08 58 1008.0
20260830144533 75 237 0.0 4.3 0.00 0.10 0.08 54 1007.9
20260830143031 75 267 0.9 5.2 0.00 0.10 0.08 57 1008.0
20260830141535 75 217 2.6 7.0 0.00 0.10 0.08 58 1008.0
20260830140030 75 295 1.7 8.7 0.00 0.10 0.08 58 1007.9
20260830134537 75 292 2.6 5.2 0.00 0.10 0.08 57 1007.9
20260830133031 75 232 2.6 10.4 0.00 0.10 0.08 57 1007.9
20260830131539 75 321 0.9 7.0 0.00 0.10 0.08 55 1008.0
20260830130028 75 332 3.5 8.7 0.00 0.10 0.08 55 1008.0
20260830124525 75 255 2.6 10.4 0.00 0.10 0.08 54 1007.9
20260830123024 75 207 4.3 8.7 0.00 0.10 0.08 56 1007.7
20260830121524 75 266 2.6 7.8 0.00 0.10 0.08 58 1007.7
20260830120021 74 326 5.2 9.6 0.00 0.10 0.08 61 1007.7
20260830114521 75 265 2.6 10.4 0.00 0.10 0.08 63 1007.5
20260830113019 76 307 1.7 8.7 0.00 0.10 0.08 60 1007.5